星链-31725 (STARLINK-31725 )

导读

STARLINK-31725是美国太空探索技术公司(SpaceX)于2024年4月18日发射的Starlink星座卫星,归属星链互联网项目。该卫星运行在近地轨道,为全球偏远地区提供高速低延迟宽带互联网服务,助力缩小数字鸿沟,同时可为军事、航空等领域提供通信支持,是SpaceX大规模低轨卫星组网计划的组成部分,推动全球卫星互联网普及应用。

基本信息
目录编号:
59538
目录名称:
STARLINK-31725
国际标识:
2024-074E
轨道中心:
EARTH
卫星名称:
星链-31725
卫星全名:
星链-31725 (STARLINK-31725 )
卫星状态:
已陨落 最后检测时间 2026-05-25
发射日期:
2024-04-18 UTC
国别 :
美国 (US)
星等 :
--
该卫星已列入 空间交会检测服务 Space Conjunction Data Service (SCDS) ,当前飞行风险评估等级: 无高风险
轨道信息
数据来源 国际轨道数据
星历时间: 2026-05-24T23:56:59+0800
轨道信息已过期110天
半长轴: 6580.1km
偏心率: 0.0016152
轨道倾角: 42.973°
近地点辐角 29.567°
升交点赤经 219.708°
平近点角 330.613°
近地点: 191.334km
远地点: 212.592km
周期: 88.534分钟
每日圈数: 16.265
详细信息
固有亮度:
5
最大亮度:
1.5
卫星平台:
Starlink v2.0 mini
覆盖范围:
全球
运营商:
太空探索技术公司
运营商所在国:
美国
制造商(研发单位):
太空探索技术公司
制造商所在国:
美国
使用方式:
暂无
卫星简介
星链(Starlink)计划是由太空探索技术公司(SpaceX)提出的一个巨型低轨卫星互联网星座项目,计划在2019年至2024年间在太空搭建由约1.2万颗卫星组成的“星链”网络,其中1584颗将部署在地球上空550千米处的近地轨道,并从2020年开始工作。该卫星仍在工作。
与全量物体交会距离演化趋势
与全量物体交会风险概率演化趋势